Volver al catálogo

STARLINK-30172

ActivoComunicacionesVLEO
NORAD 57410·PAYLOAD·🇺🇸 United States

Lanzado Jul 20, 2023 desde Vandenberg Space Force Base

Loading…

Próximos Pases (próximas 24 horas)

TLE

ActualizadoSource: CelesTrak SupGP

Época: Sep 15, 2026, 02:42 UTC

1 57410C 23102G   26258.11298611  .00234770  00000+0  50550-2 0  2584
2 57410  42.9998 256.8263 0001871 273.7215  47.8134 15.43640764    14

Sigue STARLINK-30172 en tiempo real con AllMySat

Download on the App Store